TimeEST,TemperatureF,Dew PointF,Humidity,Sea Level PressureIn,VisibilityMPH,Wind Direction,Wind SpeedMPH,Gust SpeedMPH,PrecipitationIn,Events,Conditions,WindDirDegrees,DateUTC
12:15 AM,24.8,15.8,69,29.92,9.0,WSW,3.5,-,N/A,,Overcast,250,2013-02-16 05:15:00
12:35 AM,26.6,23.0,86,29.92,9.0,Calm,Calm,-,N/A,,Overcast,0,2013-02-16 05:35:00
12:55 AM,26.6,24.8,93,29.92,10.0,Calm,Calm,-,N/A,,Overcast,0,2013-02-16 05:55:00
1:15 AM,28.4,19.4,69,29.92,10.0,Calm,Calm,-,N/A,,Overcast,0,2013-02-16 06:15:00
1:35 AM,28.4,24.8,86,29.93,10.0,Calm,Calm,-,N/A,,Overcast,0,2013-02-16 06:35:00
1:55 AM,28.4,24.8,86,29.92,10.0,Calm,Calm,-,N/A,,Overcast,0,2013-02-16 06:55:00
2:15 AM,28.4,21.2,74,29.92,10.0,Calm,Calm,-,N/A,,Overcast,0,2013-02-16 07:15:00
2:35 AM,28.4,24.8,86,29.92,10.0,North,3.5,-,N/A,,Overcast,360,2013-02-16 07:35:00
2:55 AM,30.2,26.6,86,29.91,10.0,West,3.5,-,N/A,,Overcast,270,2013-02-16 07:55:00
3:15 AM,32.0,19.4,60,29.92,10.0,West,6.9,-,N/A,,Overcast,280,2013-02-16 08:15:00
3:35 AM,33.8,19.4,56,29.91,10.0,WNW,8.1,-,N/A,,Overcast,300,2013-02-16 08:35:00
4:15 AM,33.8,23.0,65,29.92,10.0,WNW,12.7,-,N/A,,Overcast,300,2013-02-16 09:15:00
4:35 AM,33.8,24.8,70,29.92,8.0,WNW,12.7,-,N/A,,Overcast,300,2013-02-16 09:35:00
4:55 AM,32.0,30.2,93,29.92,3.0,WNW,10.4,18.4,N/A,,Overcast,300,2013-02-16 09:55:00
5:35 AM,30.2,26.6,86,29.92,3.0,NW,8.1,-,N/A,,Overcast,310,2013-02-16 10:35:00
5:55 AM,30.2,28.4,93,29.92,5.0,NW,8.1,-,N/A,,Overcast,310,2013-02-16 10:55:00
6:15 AM,30.2,28.4,93,29.92,2.0,NW,10.4,-,N/A,,Overcast,320,2013-02-16 11:15:00
6:35 AM,30.2,26.6,86,29.92,1.8,NW,5.8,-,N/A,,Overcast,310,2013-02-16 11:35:00
6:55 AM,30.2,26.6,86,29.92,1.5,NW,5.8,-,N/A,,Overcast,310,2013-02-16 11:55:00
7:15 AM,30.2,30.2,100,29.92,3.0,NW,6.9,-,N/A,,Overcast,310,2013-02-16 12:15:00
7:35 AM,30.2,26.6,86,29.91,7.0,NW,6.9,-,N/A,,Overcast,310,2013-02-16 12:35:00
7:55 AM,32.0,26.6,80,29.92,8.0,NW,6.9,-,N/A,,Overcast,310,2013-02-16 12:55:00
8:15 AM,32.0,28.4,87,29.92,10.0,WNW,5.8,-,N/A,,Overcast,300,2013-02-16 13:15:00
8:55 AM,32.0,26.6,80,29.92,8.0,NW,4.6,-,N/A,,Overcast,310,2013-02-16 13:55:00
9:15 AM,33.8,26.6,75,29.92,9.0,WNW,3.5,-,N/A,,Overcast,300,2013-02-16 14:15:00
9:35 AM,33.8,26.6,75,29.92,10.0,NW,5.8,-,N/A,,Overcast,310,2013-02-16 14:35:00
9:55 AM,33.8,28.4,81,29.92,10.0,NW,4.6,-,N/A,,Overcast,320,2013-02-16 14:55:00
10:15 AM,33.8,26.6,75,29.91,9.0,Calm,Calm,-,N/A,,Overcast,0,2013-02-16 15:15:00
10:36 AM,33.8,26.6,75,29.90,10.0,Calm,Calm,-,N/A,,Overcast,0,2013-02-16 15:36:00
10:55 AM,33.8,26.6,75,29.91,10.0,Calm,Calm,-,N/A,,Overcast,0,2013-02-16 15:55:00
11:15 AM,35.6,26.6,70,29.90,10.0,North,3.5,-,N/A,,Overcast,10,2013-02-16 16:15:00
11:35 AM,35.6,26.6,70,29.89,10.0,North,4.6,-,N/A,,Overcast,360,2013-02-16 16:35:00
11:55 AM,35.6,28.4,75,29.89,10.0,NW,4.6,-,N/A,,Overcast,310,2013-02-16 16:55:00
12:15 PM,35.6,28.4,75,29.88,10.0,NW,5.8,-,N/A,,Overcast,320,2013-02-16 17:15:00
12:35 PM,35.6,26.6,70,29.87,10.0,North,6.9,-,N/A,,Overcast,10,2013-02-16 17:35:00
12:55 PM,35.6,26.6,70,29.87,10.0,NE,5.8,-,N/A,,Overcast,40,2013-02-16 17:55:00
1:15 PM,37.4,24.8,60,29.86,10.0,NNE,4.6,-,N/A,,Mostly Cloudy,20,2013-02-16 18:15:00
1:35 PM,37.4,26.6,65,29.85,10.0,North,8.1,-,N/A,,Overcast,360,2013-02-16 18:35:00
1:55 PM,37.4,24.8,60,29.85,10.0,NNE,4.6,-,N/A,,Overcast,20,2013-02-16 18:55:00
2:15 PM,35.6,24.8,65,29.85,10.0,NNE,3.5,-,N/A,,Overcast,20,2013-02-16 19:15:00
2:35 PM,37.4,24.8,60,29.85,10.0,Calm,Calm,-,N/A,,Overcast,0,2013-02-16 19:35:00
2:55 PM,37.4,24.8,60,29.84,10.0,North,6.9,-,N/A,,Overcast,10,2013-02-16 19:55:00
3:15 PM,35.6,28.4,75,29.84,10.0,NNE,5.8,-,N/A,,Mostly Cloudy,30,2013-02-16 20:15:00
3:35 PM,35.6,28.4,75,29.84,10.0,North,6.9,-,N/A,,Overcast,10,2013-02-16 20:35:00
3:55 PM,35.6,24.8,65,29.84,10.0,North,6.9,-,N/A,,Overcast,10,2013-02-16 20:55:00
4:15 PM,35.6,26.6,70,29.84,10.0,NNE,8.1,-,N/A,,Mostly Cloudy,30,2013-02-16 21:15:00
4:35 PM,35.6,24.8,65,29.83,10.0,North,10.4,-,N/A,,Overcast,360,2013-02-16 21:35:00
4:55 PM,35.6,24.8,65,29.83,10.0,North,10.4,-,N/A,,Overcast,360,2013-02-16 21:55:00
5:15 PM,33.8,24.8,70,29.82,10.0,North,10.4,-,N/A,,Mostly Cloudy,10,2013-02-16 22:15:00
5:35 PM,33.8,24.8,70,29.82,10.0,North,11.5,-,N/A,,Mostly Cloudy,10,2013-02-16 22:35:00
5:56 PM,33.8,26.6,75,29.83,10.0,North,6.9,-,N/A,,Overcast,10,2013-02-16 22:56:00
6:15 PM,33.8,26.6,75,29.83,10.0,North,6.9,-,N/A,,Overcast,10,2013-02-16 23:15:00
6:35 PM,33.8,26.6,75,29.84,10.0,NNE,8.1,-,N/A,,Mostly Cloudy,20,2013-02-16 23:35:00
6:55 PM,33.8,23.0,65,29.84,10.0,NNE,12.7,-,N/A,,Overcast,20,2013-02-16 23:55:00
7:15 PM,33.8,19.4,56,29.83,10.0,NNE,10.4,-,N/A,,Overcast,20,2013-02-17 00:15:00
7:35 PM,32.0,17.6,55,29.82,10.0,NNE,12.7,-,N/A,,Overcast,20,2013-02-17 00:35:00
7:55 PM,32.0,15.8,51,29.82,10.0,North,11.5,-,N/A,,Overcast,10,2013-02-17 00:55:00
8:15 PM,30.2,19.4,64,29.81,10.0,North,13.8,17.3,N/A,,Overcast,10,2013-02-17 01:15:00
8:35 PM,30.2,19.4,64,29.80,10.0,North,12.7,-,N/A,,Overcast,10,2013-02-17 01:35:00
8:55 PM,30.2,17.6,60,29.81,10.0,North,11.5,-,N/A,,Overcast,360,2013-02-17 01:55:00
9:15 PM,30.2,12.2,47,29.80,10.0,North,15.0,-,N/A,,Overcast,360,2013-02-17 02:15:00
9:35 PM,30.2,14.0,51,29.79,10.0,North,13.8,21.9,N/A,,Overcast,10,2013-02-17 02:35:00
9:55 PM,30.2,17.6,60,29.78,10.0,North,12.7,-,N/A,,Overcast,10,2013-02-17 02:55:00
10:15 PM,28.4,14.0,55,29.78,10.0,North,11.5,-,N/A,,Overcast,360,2013-02-17 03:15:00
10:35 PM,28.4,10.4,47,29.77,10.0,North,11.5,-,N/A,,Overcast,360,2013-02-17 03:35:00
10:55 PM,28.4,10.4,47,29.76,10.0,North,15.0,21.9,N/A,,Overcast,360,2013-02-17 03:55:00
11:15 PM,28.4,10.4,47,29.76,10.0,North,15.0,-,N/A,,Overcast,360,2013-02-17 04:15:00
11:35 PM,28.4,6.8,40,29.75,10.0,North,10.4,-,N/A,,Overcast,360,2013-02-17 04:35:00
11:55 PM,28.4,8.6,43,29.73,10.0,North,9.2,-,N/A,,Overcast,360,2013-02-17 04:55:00